Regional Weather Roundup
Issued by NWS

Home | Current Version | Previous Version | Text Only | Print | Product List | Glossary Off
Versions: 1 2 3 4 5 6 7 8 9 10 11 12 13 14 15 16 17 18 19 20 21 22 23 24 25 26 27 28 29 30 31 32 33 34 35 36 37 38 39 40 41 42 43 44 45 46 47 48 49 50

000
ASUS43 KMKX 252221
RWRWI

WISCONSIN REGIONAL WEATHER ROUNDUP
NATIONAL WEATHER SERVICE MILWAUKEE/SULLIVAN WI
500 PM CDT SAT OCT 25 2014

NOTE: "FAIR" INDICATES FEW OR NO CLOUDS BELOW 12,000 FEET WITH NO
SIGNIFICANT WEATHER AND/OR OBSTRUCTIONS TO VISIBILITY.

WIZ001-002-006>008-014>016-023>028-252300-
NORTHWEST WISCONSIN

CITY           SKY/WX    TMP DP  RH WIND       PRES   REMARKS
SUPERIOR ARPT  CLEAR     58  25  28 W18G29    29.95R
ASHLAND        CLEAR     58  26  29 W15G28    29.91R
HAYWARD        CLEAR     60  19  20 NW9G17    29.94R
SIREN          CLEAR     61  20  21 NW12      29.98S
CUMBERLAND     CLEAR     57  21  24 NW16G29   29.98S
RICE LAKE      CLEAR     59  22  24 W17G25    29.99S
CHETEK         CLEAR     60  25  26 W17G30    29.97R
LADYSMITH      CLEAR     60  24  25 NW18G26   29.95S
EAU CLAIRE     CLEAR     61  25  25 W17G24    29.97S
MENOMONIE      CLEAR     62  24  24 W16       29.99R
NEW RICHMOND   SUNNY     61  22  22 NW14G20   30.01S
OSCEOLA        SUNNY     61  25  24 W15G24    30.04R
$$

WIZ003>005-009-010-017-018-252300-
NORTH CENTRAL WISCONSIN

CITY           SKY/WX    TMP DP  RH WIND       PRES   REMARKS
MANITOWISH WTR CLEAR     55  23  28 NW20G26   29.87R
ARBOR VITAE    CLEAR     57  19  22 NW14G29   29.87R
WOODRUFF       CLEAR     57  19  22 NW14G29   29.87R
RHINELANDER    CLEAR     57  21  24 W20G28    29.87R
EAGLE RIVER    CLEAR     56  16  21 NW17G31   29.84R
LAND O LAKES   CLEAR     56  19  23 NW16G25   29.84R
PHILLIPS       CLEAR     58  22  25 NW9G22    29.89S
TOMAHAWK       CLEAR     57  21  24 W15G29    29.89R
MEDFORD        CLEAR     57  27  31 W12G24    29.91S
MERRILL        CLEAR     59  25  26 NW21G28   29.88R
$$

WIZ029-030-035-036-043>047-252300-
CENTRAL WISCONSIN

CITY           SKY/WX    TMP DP  RH WIND       PRES   REMARKS
WAUSAU         CLEAR     60  25  26 W24G36    29.88R
MOSINEE        CLEAR     57  27  30 W18G28    29.90S
MARSHFIELD     CLEAR     59  27  29 W16G25    29.92S
STEVENS POINT  CLEAR     58  27  30 W15G22    29.91R
WAUPACA        CLEAR     63  25  23 W14G23    29.89R
WAUTOMA        CLOUDY    63  27  25 NW15G24   29.91R
WISC RAPIDS    CLEAR     61  28  28 W15G25    29.92F
CAMP DOUGLAS   NOT AVBL
$$

WIZ011>013-019>022-031-037>040-048>050-252300-
NORTHEAST WISCONSIN

CITY           SKY/WX    TMP DP  RH WIND       PRES   REMARKS
ANTIGO         CLEAR     57  25  29 NW16G36   29.86R
SHAWANO        CLEAR     64  24  22 W16G25    29.84S
OCONTO         CLEAR     63  25  24 W15G25    29.80R
STURGEON BAY   CLEAR     61  28  29 W18G24    29.80R
GREEN BAY      CLEAR     63  28  26 W18G25    29.83R
MANITOWOC      CLEAR     63  31  30 W16G25    29.83R
APPLETON       CLEAR     61  28  29 W20G28    29.86S
CLINTONVILLE   CLEAR     63  25  23 W16G23    29.85R
OSHKOSH        CLEAR     62  28  27 W14G28    29.87R
$$

WIZ032>034-041-042-053>061-252300-
SOUTHWEST WISCONSIN

CITY           SKY/WX    TMP DP  RH WIND       PRES   REMARKS
LA CROSSE      SUNNY     65  30  27 NW14      29.98S
SPARTA         CLEAR     62  23  22 W13G22    29.98S
VIROQUA        CLEAR     62  26  25 NW13      29.99S
BOSCOBEL       SUNNY     67  24  19 W12G21    29.99S
PRAIRIE DU CHI SUNNY     66  24  20 W14       30.00R
PLATTEVILLE    SUNNY     66  31  27 W10G18    30.00R
$$

WIZ056-057-062-063-064-067-068-252300-
SOUTH CENTRAL WISCONSIN

CITY           SKY/WX    TMP DP  RH WIND       PRES   REMARKS
REEDSBURG      CLEAR     63  28  27 W13G23    29.95S
BARABOO/DELLS  CLEAR     63  25  24 NW15G22   29.94S
LONE ROCK      CLEAR     69  24  18 NW20G28   29.96S
MINERAL POINT  CLEAR     64  19  17 NW13G22   29.98R
MADISON        CLEAR     66  24  20 NW12G21   29.93S
MIDDLETON      CLEAR     66  17  15 NW9       29.94S
WATERTOWN      CLEAR     64  26  23 NW17G24   29.90S
MONROE         CLEAR     64  32  29 W14G20    29.95F
JANESVILLE     CLEAR     68  21  17 NW15G22   29.93R
$$

WIZ051-052-058>065-066-070>072-252300-
SOUTHEAST WISCONSIN

CITY           SKY/WX    TMP DP  RH WIND       PRES   REMARKS
MILWAUKEE      PTCLDY    68  25  19 W17G26    29.88S
WAUKESHA       CLEAR     63  27  25 W20G25    29.90S
MILWAUKEE/TIMM CLEAR     66  19  16 NW14G25   29.89R
RACINE         CLEAR     67  27  22 W8G21     29.90S
BURLINGTON     CLEAR     65  26  23 W17G26    29.91S
KENOSHA        CLEAR     67  31  26 W16G22    29.89F
FOND DU LAC    CLEAR     62  29  28 W17G24    29.88R
SHEBOYGAN      CLEAR     62  30  29 W14G26    29.85R
WEST BEND      CLEAR     63  25  23 W20G29    29.88S
JUNEAU         CLEAR     63  28  27 W9G16     29.91S
$$

LSZ147-162-252300-
LAKE SUPERIOR

STATION/POSITION TIME  TEMP    WIND        PRES    WAVE
                       AIR SEA DIR/SP/G            HT/PER
                 (UTC) (F)     (DEG/KT/KT) (MB)    (FT/S)
W MID LAKE BUOY  2150   50 46  260/ 17/ 19 1009.0R   5/ 6
DEVILS ISLAND    2200   54     280/ 18/ 20 1011.6R
PORT WING        2140   56     260/ 13/ 20 1013.2R
SAXON HARBOR     2100   60     290/ 13/ 21 1011.5R
$$

LMZ867-665-643>646-252300-
LAKE MICHIGAN

STATION/POSITION TIME  TEMP    WIND        PRES    WAVE
                       AIR SEA DIR/SP/G            HT/PER
                 (UTC) (F)     (DEG/KT/KT) (MB)    (FT/S)
CHAMBERS ISLAND  2100   62     250/  3/ 10 1008.1S
N MID LAKE BUOY  2150   55 51  290/ 12/ 14 1007.2R   2/ 4
NORTHPORT PIER   2100   60     300/  9/ 15 1007.5R
SISTER BAY       2058          320/ 14/ 16   N/A
KEWAUNEE LAKESHO 2200   63     290/  7/ 14 1008.4R
SHEBOYGAN LAKESH 2200   63 51  290/ 17/ 21 1011.0R
PORT WASHINGTON  2140   66     290/ 13/ 23 1011.5S
ATWATER BUOY     2200   64     280/ 14/ 17 1012.9R
MILWAUKEE LAKESH 2200   67     300/ 10/ 14   N/A
S MID LAKE BUOY  2150   60 54  280/ 14/ 16 1011.5F   1/ 3
KENOSHA   LAKESH 2200   68     290/ 12/ 17 1011.5S
$$

TC  - TEMPERATURE IN CELSIUS
VSB - VISIBILITY IN STATUTE MILES
WCI - WIND CHILL INDEX
HX  - HEAT INDEX




USA.gov is the U.S. government's official web portal to all federal, state and local government web resources and services.